User: anonymous   Login
Location: Salamanca
(40.9670°N, 5.6500°W)
Time: 06:52:02
(UTC+02:00)
Language:

Cosmos 1633 Rocket - Orbit

View from above orbital plane
View from above orbital plane
View from above satellite
View from above satellite

Ground track
Ground track

The orbit data is extracted from the following two-line orbital elements,

1 15593U 85020B   17204.53601426 +.00000074 +00000-0 +59579-5 0  9990
2 15593 082.5362 228.6397 0010089 281.5713 230.6683 14.84280618728594
Epoch (UTC): 23 July 2017 12:51:51
Eccentricity: 0.0010089
inclination: 82.5362°
perigee height: 609 km
apogee height: 623 km
right ascension of ascending node: 228.6397°
argument of perigee: 281.5713°
revolutions per day: 14.84280618
mean anomaly at epoch: 230.6683°
orbit number at epoch: 72859

The dashed part of the orbit path shows where the satellite is in the earth's shadow,  

DLR